User: anonymous   Login
Location: Unspecified
(0.0000°N, 0.0000°E)
Time: 17:53:12
(UTC+02:00)
Language:

ARIANE 44L R/B - Orbit

View from above orbital plane
View from above orbital plane
View from above satellite
View from above satellite

Ground track
Ground track

The orbit data is extracted from the following two-line orbital elements,

1 26901U 01039B   15215.10908609  .00015540  00000-0  31680-2 0  9993
2 26901 007.2349 120.1726 6943251 015.5757 185.7399 02.72035969124680
Epoch (UTC): 03 August 2015 02:37:05
Eccentricity: 0.6943251
inclination: 7.2349°
perigee height: 248 km
apogee height: 30348 km
right ascension of ascending node: 120.1726°
argument of perigee: 15.5757°
revolutions per day: 2.72035969
mean anomaly at epoch: 185.7399°
orbit number at epoch: 12468

The dashed part of the orbit path shows where the satellite is in the earth's shadow,  

DLR